When you browse on this site, cookies collect data to enhance your experience and personalize the content and advertising you see.
Visit our Privacy Policy to learn more. By continuing to use the site, you agree to this use of cookies and data.
  • en France
  • Liste des pays
  • À 7 jours
  • Température de l'eau
  • Carte météo
  • Widgets météo
  • user-avatar
    Se connecter

    Météo par heure à Kabve

    Ce jour, 7 Décembre, Samedi

    Heure Température Précipitation Vent Pression Humidité
    00:00 +20°C° 0 mm 2 m/s 660 mmHg 86%
    01:00 +20°C° 0 mm 2 m/s 660 mmHg 87%
    02:00 +19°C° 0 mm 2 m/s 660 mmHg 86%
    03:00 +19°C° 0 mm 2 m/s 660 mmHg 86%
    04:00 +19°C° 0 mm 2 m/s 659 mmHg 87%
    05:00 +19°C° 0 mm 2 m/s 659 mmHg 88%
    06:00 +20°C° 0 mm 2 m/s 660 mmHg 82%
    07:00 +22°C° 0 mm 3 m/s 661 mmHg 77%
    08:00 +24°C° 0 mm 3 m/s 662 mmHg 74%
    09:00 +26°C° 0.5 mm 3 m/s 661 mmHg 69%
    10:00 +28°C° 0.5 mm 2 m/s 661 mmHg 64%
    11:00 +29°C° 0.5 mm 2 m/s 661 mmHg 59%
    12:00 +29°C° 1.9 mm 1 m/s 660 mmHg 59%
    13:00 +29°C° 1.9 mm 1 m/s 659 mmHg 60%
    14:00 +29°C° 1.9 mm 1 m/s 659 mmHg 60%
    15:00 +29°C° 1 mm 1 m/s 658 mmHg 65%
    16:00 +28°C° 1 mm 1 m/s 658 mmHg 69%
    17:00 +27°C° 1 mm 1 m/s 657 mmHg 73%
    18:00 +26°C° 0.1 mm 1 m/s 658 mmHg 75%
    19:00 +25°C° 0.1 mm 1 m/s 658 mmHg 77%
    20:00 +24°C° 0.1 mm 1 m/s 658 mmHg 79%
    21:00 +23°C° 0.2 mm 1 m/s 658 mmHg 81%
    22:00 +23°C° 0.2 mm 1 m/s 658 mmHg 83%
    23:00 +22°C° 0.2 mm 1 m/s 658 mmHg 85%

    Demain, 8 Décembre, Dimanche

    Heure Température Précipitation Vent Pression Humidité
    00:00 +22°C° 1.4 mm 1 m/s 658 mmHg 87%
    01:00 +22°C° 1.4 mm 1 m/s 658 mmHg 90%
    02:00 +21°C° 1.4 mm 1 m/s 658 mmHg 93%
    03:00 +21°C° 1.8 mm 1 m/s 658 mmHg 93%
    04:00 +20°C° 1.8 mm 2 m/s 658 mmHg 94%
    05:00 +20°C° 1.8 mm 2 m/s 658 mmHg 95%
    06:00 +20°C° 1.6 mm 2 m/s 659 mmHg 94%
    07:00 +20°C° 1.6 mm 2 m/s 659 mmHg 94%
    08:00 +20°C° 1.6 mm 2 m/s 660 mmHg 94%
    09:00 +20°C° 4.1 mm 2 m/s 660 mmHg 95%
    10:00 +20°C° 4.1 mm 2 m/s 659 mmHg 95%
    11:00 +20°C° 4.1 mm 3 m/s 659 mmHg 95%
    12:00 +20°C° 2.4 mm 3 m/s 659 mmHg 93%
    13:00 +21°C° 2.4 mm 2 m/s 659 mmHg 92%
    14:00 +21°C° 2.4 mm 2 m/s 658 mmHg 90%
    15:00 +21°C° 0 mm 2 m/s 658 mmHg 90%
    16:00 +21°C° 0 mm 2 m/s 658 mmHg 89%
    17:00 +23°C° 0 mm 1 m/s 657 mmHg 88%
    18:00 +22°C° 0 mm 1 m/s 657 mmHg 90%
    19:00 +21°C° 0 mm 1 m/s 658 mmHg 92%
    20:00 +21°C° 0 mm 1 m/s 658 mmHg 94%
    21:00 +21°C° 0 mm 1 m/s 658 mmHg 94%
    22:00 +20°C° 0 mm 1 m/s 658 mmHg 94%
    23:00 +20°C° 0 mm 1 m/s 658 mmHg 95%

    Après-demain, 9 Décembre, Lundi

    Heure Température Précipitation Vent Pression Humidité
    00:00 +20°C° 0 mm 1 m/s 658 mmHg 95%
    01:00 +20°C° 0 mm 1 m/s 658 mmHg 95%
    02:00 +20°C° 0 mm 1 m/s 658 mmHg 95%
    03:00 +20°C° 0 mm 1 m/s 658 mmHg 95%
    04:00 +19°C° 0 mm 2 m/s 658 mmHg 95%
    05:00 +19°C° 0 mm 2 m/s 658 mmHg 96%
    06:00 +20°C° 0.3 mm 2 m/s 658 mmHg 92%
    07:00 +21°C° 0.3 mm 3 m/s 659 mmHg 89%
    08:00 +22°C° 0.3 mm 3 m/s 660 mmHg 86%
    09:00 +22°C° 0.6 mm 4 m/s 659 mmHg 84%
    10:00 +23°C° 0.6 mm 4 m/s 659 mmHg 82%
    11:00 +23°C° 0.6 mm 4 m/s 659 mmHg 80%
    12:00 +25°C° 0.3 mm 4 m/s 659 mmHg 76%
    13:00 +27°C° 0.3 mm 4 m/s 658 mmHg 71%
    14:00 +28°C° 0.3 mm 3 m/s 658 mmHg 67%
    15:00 +27°C° 0.6 mm 3 m/s 658 mmHg 70%
    16:00 +27°C° 0.6 mm 3 m/s 658 mmHg 73%
    17:00 +26°C° 0.6 mm 2 m/s 658 mmHg 75%
    18:00 +25°C° 1.2 mm 2 m/s 658 mmHg 80%
    19:00 +23°C° 1.2 mm 2 m/s 658 mmHg 85%
    20:00 +21°C° 1.2 mm 2 m/s 658 mmHg 90%
    21:00 +21°C° 0.2 mm 2 m/s 658 mmHg 91%
    22:00 +20°C° 0.2 mm 2 m/s 659 mmHg 92%
    23:00 +20°C° 0.2 mm 2 m/s 659 mmHg 92%

    10 Décembre, Mardi

    Heure Température Précipitation Vent Pression Humidité
    00:00 +20°C° 0 mm 2 m/s 659 mmHg 93%
    01:00 +20°C° 0 mm 2 m/s 658 mmHg 93%
    02:00 +19°C° 0 mm 2 m/s 658 mmHg 93%
    03:00 +19°C° 0 mm 2 m/s 658 mmHg 93%
    04:00 +19°C° 0 mm 2 m/s 658 mmHg 94%
    05:00 +19°C° 0 mm 2 m/s 658 mmHg 94%
    06:00 +19°C° 0 mm 2 m/s 658 mmHg 93%
    07:00 +20°C° 0 mm 2 m/s 659 mmHg 93%
    08:00 +20°C° 0 mm 2 m/s 659 mmHg 93%
    09:00 +20°C° 0.1 mm 3 m/s 659 mmHg 91%
    10:00 +20°C° 0.1 mm 3 m/s 659 mmHg 90%
    11:00 +21°C° 0.1 mm 3 m/s 659 mmHg 89%
    12:00 +22°C° 0.1 mm 3 m/s 658 mmHg 84%
    13:00 +24°C° 0.1 mm 3 m/s 658 mmHg 80%
    14:00 +25°C° 0.1 mm 3 m/s 658 mmHg 75%
    15:00 +25°C° 0.4 mm 3 m/s 658 mmHg 76%
    16:00 +25°C° 0.4 mm 3 m/s 657 mmHg 77%
    17:00 +25°C° 0.4 mm 2 m/s 657 mmHg 78%
    18:00 +24°C° 0.6 mm 2 m/s 657 mmHg 83%
    19:00 +23°C° 0.6 mm 1 m/s 658 mmHg 88%
    20:00 +22°C° 0.6 mm 1 m/s 658 mmHg 93%
    21:00 +21°C° 0.6 mm 1 m/s 658 mmHg 92%
    22:00 +21°C° 0.6 mm 1 m/s 659 mmHg 92%
    23:00 +20°C° 0.6 mm 2 m/s 659 mmHg 91%

    11 Décembre, Mercredi

    Heure Température Précipitation Vent Pression Humidité
    00:00 +20°C° 0.3 mm 2 m/s 658 mmHg 92%
    01:00 +20°C° 0.3 mm 2 m/s 658 mmHg 92%
    02:00 +20°C° 0.3 mm 2 m/s 658 mmHg 93%
    03:00 +20°C° 0.2 mm 2 m/s 658 mmHg 92%
    04:00 +20°C° 0.2 mm 2 m/s 658 mmHg 91%
    05:00 +20°C° 0.2 mm 2 m/s 658 mmHg 90%
    06:00 +20°C° 0.1 mm 3 m/s 659 mmHg 88%
    07:00 +21°C° 0.1 mm 3 m/s 659 mmHg 85%
    08:00 +22°C° 0.1 mm 4 m/s 660 mmHg 83%
    09:00 +25°C° 0.5 mm 3 m/s 660 mmHg 75%
    10:00 +27°C° 0.5 mm 3 m/s 660 mmHg 67%
    11:00 +28°C° 0.5 mm 3 m/s 660 mmHg 59%
    12:00 +29°C° 0.2 mm 2 m/s 660 mmHg 54%
    13:00 +30°C° 0.2 mm 2 m/s 660 mmHg 50%
    14:00 +31°C° 0.2 mm 2 m/s 659 mmHg 45%
    15:00 +30°C° 0.2 mm 2 m/s 659 mmHg 51%
    16:00 +29°C° 0.2 mm 2 m/s 658 mmHg 57%
    17:00 +28°C° 0.2 mm 1 m/s 658 mmHg 63%
    18:00 +27°C° 0.1 mm 1 m/s 658 mmHg 68%
    19:00 +25°C° 0.1 mm 1 m/s 658 mmHg 73%
    20:00 +24°C° 0.1 mm 1 m/s 659 mmHg 78%
    21:00 +23°C° 0.2 mm 1 m/s 659 mmHg 80%
    22:00 +23°C° 0.2 mm 1 m/s 659 mmHg 83%
    23:00 +22°C° 0.2 mm 1 m/s 659 mmHg 85%

    12 Décembre, Jeudi

    Heure Température Précipitation Vent Pression Humidité
    00:00 +22°C° 0.1 mm 1 m/s 659 mmHg 87%
    01:00 +20°C° 0.1 mm 2 m/s 659 mmHg 89%
    02:00 +20°C° 0.1 mm 2 m/s 658 mmHg 91%
    03:00 +20°C° 0 mm 2 m/s 658 mmHg 92%
    04:00 +19°C° 0 mm 2 m/s 659 mmHg 93%
    05:00 +19°C° 0 mm 2 m/s 659 mmHg 94%
    06:00 +20°C° 0.3 mm 2 m/s 659 mmHg 90%
    07:00 +21°C° 0.3 mm 2 m/s 660 mmHg 87%
    08:00 +22°C° 0.3 mm 3 m/s 660 mmHg 84%
    09:00 +24°C° 1.1 mm 2 m/s 661 mmHg 80%
    10:00 +25°C° 1.1 mm 2 m/s 661 mmHg 75%
    11:00 +26°C° 1.1 mm 2 m/s 661 mmHg 71%
    12:00 +26°C° 1.3 mm 2 m/s 660 mmHg 74%
    13:00 +25°C° 1.3 mm 2 m/s 660 mmHg 78%
    14:00 +25°C° 1.3 mm 1 m/s 659 mmHg 81%
    15:00 +25°C° 0.3 mm 1 m/s 659 mmHg 81%
    16:00 +24°C° 0.3 mm 1 m/s 659 mmHg 82%
    17:00 +24°C° 0.3 mm 1 m/s 659 mmHg 82%
    18:00 +23°C° 0 mm 1 m/s 659 mmHg 84%
    19:00 +22°C° 0 mm 1 m/s 659 mmHg 86%
    20:00 +22°C° 0 mm 1 m/s 659 mmHg 88%
    21:00 +21°C° 0.1 mm 1 m/s 660 mmHg 89%
    22:00 +21°C° 0.1 mm 1 m/s 660 mmHg 89%
    23:00 +21°C° 0.1 mm 1 m/s 660 mmHg 90%
    Voir plus